Starlink 31668

operational
NORAD ID: 59580 Int'l Des: 2024-076 Owner: SPXS Country: US Constellation: starlink
LEOCIRCULAR

Starlink 31668について

説明を読み込み中...

リアルタイム位置

3D地球を読み込み中...

次回通過

高度履歴

Altitude vs Time

uPlot chart will show altitude changes over time

軌道要素

1 59580U 24076S 25260.05998973 -.00001098 00000-0 -30405-4 0 9997
2 59580 42.9997 269.1037 0000201 316.3085 43.7751 15.27570685 79959
Epoch: Sep 17, 2025 • Age: 23 hours

現在のステータス

高度 494.2 km
速度 7.62 km/s
衛星直下点 -38.01°S, 160.5°W
打ち上げ日 Apr 23, 2024
運用期間 1.4 years
タイプ internet

技術仕様

分類 Payload
質量 730.00 kg
乾燥質量 700.00 kg
総質量 730.00 kg
長さ 0.30 m
直径 4.10 m
スパン 29.00 m
形状 Box + pan
製造者 SPXS
バスタイプ Starlink V2M
フェーズステータス In Orbit
所有者/国 SPXS/US

大規模コンステレーション

Loading constellations...